ALA502 LIRF-OMDB

Flight info

Callsign ALA502
Flight time N/A
Altitude 39000
Route PEPIX L50 UNIXO/N0468F370 DCT BELIX/N0461F390 UM728 SALUN N705 BOPIX N710 TAKRI M720 FYM M872 WEJ L604 DAXAP/N0468F410 L604 GAS L308 DAROR P559 NALPO/N0492F350 P559 VUTEB
Aircraft A343/H-SDE2E3FGHIJ4J5M1RWXY/LB1D1

Departure

Time 2026-05-05 16:46
Airport Rome–Fiumicino Leonardo da Vinci International Airport (LIRF)

Arrival

Time N/A
Airport Dubai International Airport (OMDB)
Time Latitude Longitude Altitude Speed Heading
2026-05-05 15:57 41.79710 12.24268 18 ft 0 kts 219°
2026-05-05 16:30 41.79716 12.24274 19 ft 2 kts 219°
2026-05-05 16:30 41.79731 12.24291 19 ft 3 kts 219°
2026-05-05 16:30 41.79747 12.24308 20 ft 3 kts 221°
2026-05-05 16:31 41.79760 12.24327 22 ft 3 kts 243°
2026-05-05 16:31 41.79766 12.24350 22 ft 3 kts 279°
2026-05-05 16:31 41.79760 12.24370 21 ft 3 kts 329°
2026-05-05 16:31 41.79752 12.24376 21 ft 1 kts 340°
2026-05-05 16:32 41.79751 12.24376 21 ft 0 kts 340°
2026-05-05 16:36 41.79755 12.24374 21 ft 1 kts 340°
2026-05-05 16:37 41.79766 12.24369 22 ft 2 kts 340°
2026-05-05 16:37 41.79782 12.24359 19 ft 4 kts 333°
2026-05-05 16:37 41.79816 12.24325 18 ft 8 kts 322°
2026-05-05 16:37 41.79865 12.24283 18 ft 9 kts 335°
2026-05-05 16:38 41.79923 12.24252 18 ft 9 kts 339°
2026-05-05 16:38 41.79986 12.24221 18 ft 10 kts 345°
2026-05-05 16:38 41.80039 12.24263 17 ft 9 kts 64°
2026-05-05 16:38 41.80064 12.24347 17 ft 10 kts 70°
2026-05-05 16:39 41.80092 12.24451 17 ft 13 kts 70°
2026-05-05 16:39 41.80128 12.24581 17 ft 16 kts 70°
2026-05-05 16:39 41.80168 12.24727 18 ft 17 kts 70°
2026-05-05 16:39 41.80202 12.24875 17 ft 17 kts 80°
2026-05-05 16:40 41.80205 12.25031 18 ft 17 kts 88°
2026-05-05 16:40 41.80237 12.25180 17 ft 17 kts 70°
2026-05-05 16:40 41.80277 12.25326 19 ft 16 kts 70°
2026-05-05 16:40 41.80315 12.25466 20 ft 16 kts 70°
2026-05-05 16:41 41.80353 12.25605 19 ft 16 kts 70°
2026-05-05 16:41 41.80392 12.25747 19 ft 16 kts 70°
2026-05-05 16:41 41.80433 12.25893 20 ft 17 kts 70°
2026-05-05 16:41 41.80473 12.26041 19 ft 17 kts 70°
2026-05-05 16:42 41.80514 12.26187 20 ft 16 kts 69°
2026-05-05 16:42 41.80554 12.26331 20 ft 17 kts 70°
2026-05-05 16:42 41.80595 12.26479 20 ft 17 kts 70°
2026-05-05 16:42 41.80636 12.26630 19 ft 17 kts 70°
2026-05-05 16:43 41.80679 12.26785 18 ft 18 kts 70°
2026-05-05 16:43 41.80723 12.26949 17 ft 19 kts 70°
2026-05-05 16:43 41.80769 12.27103 17 ft 17 kts 57°
2026-05-05 16:43 41.80858 12.27119 17 ft 13 kts 343°
2026-05-05 16:44 41.80944 12.27078 17 ft 13 kts 340°
2026-05-05 16:44 41.80974 12.26986 17 ft 11 kts 258°
2026-05-05 16:44 41.80966 12.26958 17 ft 0 kts 249°
2026-05-05 16:45 41.80954 12.26914 17 ft 20 kts 249°
2026-05-05 16:45 41.80835 12.26477 23 ft 78 kts 250°
2026-05-05 16:45 41.80587 12.25580 22 ft 126 kts 250°
2026-05-05 16:45 41.80245 12.24303 60 ft 161 kts 247°
2026-05-05 16:46 41.79860 12.22803 323 ft 179 kts 246°
2026-05-05 16:46 41.79466 12.21115 598 ft 203 kts 250°
2026-05-05 16:46 41.79295 12.19125 1055 ft 226 kts 266°
2026-05-05 16:46 41.79467 12.16951 1653 ft 241 kts 274°
2026-05-05 16:47 41.79528 12.14700 2460 ft 240 kts 258°
2026-05-05 16:47 41.78968 12.12724 3464 ft 228 kts 228°
2026-05-05 16:47 41.77746 12.11448 4395 ft 223 kts 208°
2026-05-05 16:47 41.76324 12.10597 5233 ft 226 kts 205°
2026-05-05 16:48 41.74907 12.09597 5943 ft 233 kts 214°
2026-05-05 16:48 41.73606 12.08280 6707 ft 236 kts 223°
2026-05-05 16:48 41.72419 12.06745 7479 ft 238 kts 226°
2026-05-05 16:48 41.71219 12.05210 8336 ft 239 kts 221°
2026-05-05 16:49 41.69747 12.04196 9108 ft 246 kts 193°
2026-05-05 16:49 41.67977 12.04063 9607 ft 264 kts 182°
2026-05-05 16:49 41.66090 12.04200 10074 ft 279 kts 179°
2026-05-05 16:49 41.64107 12.04340 10493 ft 292 kts 182°
2026-05-05 16:50 41.62037 12.04216 10870 ft 304 kts 192°
2026-05-05 16:50 41.59970 12.03434 11231 ft 314 kts 205°
2026-05-05 16:50 41.58012 12.02016 11601 ft 327 kts 210°
2026-05-05 16:50 41.55830 12.00959 11920 ft 345 kts 191°
2026-05-05 16:51 41.53381 12.01042 12306 ft 361 kts 174°
2026-05-05 16:51 41.50860 12.01555 12710 ft 371 kts 176°
2026-05-05 16:51 41.48271 12.01779 13351 ft 374 kts 181°
2026-05-05 16:51 41.45663 12.01821 14028 ft 376 kts 182°
2026-05-05 16:52 41.43037 12.01819 14656 ft 378 kts 183°
2026-05-05 16:52 41.40395 12.01787 15269 ft 382 kts 183°
2026-05-05 16:52 41.37719 12.01747 15780 ft 387 kts 183°
2026-05-05 16:52 41.35012 12.01716 16318 ft 392 kts 183°
2026-05-05 16:53 41.32268 12.01807 16911 ft 397 kts 176°
2026-05-05 16:53 41.29559 12.02657 17484 ft 406 kts 161°
2026-05-05 16:53 41.27090 12.04555 18041 ft 416 kts 144°
2026-05-05 16:53 41.24924 12.07157 18547 ft 423 kts 139°
2026-05-05 16:54 41.22822 12.09913 19012 ft 427 kts 138°
2026-05-05 16:54 41.20703 12.12701 19493 ft 430 kts 138°
2026-05-05 16:54 41.18562 12.15502 19967 ft 434 kts 138°
2026-05-05 16:54 41.16395 12.18318 20464 ft 437 kts 138°
2026-05-05 16:55 41.14213 12.21152 20922 ft 441 kts 138°
2026-05-05 16:55 41.12011 12.24004 21384 ft 444 kts 138°
2026-05-05 16:55 41.09786 12.26877 21807 ft 449 kts 138°
2026-05-05 16:55 41.07538 12.29772 22256 ft 452 kts 138°
2026-05-05 16:56 41.05271 12.32688 22704 ft 455 kts 138°
2026-05-05 16:56 41.02989 12.35620 23145 ft 459 kts 138°
2026-05-05 16:56 41.00690 12.38573 23558 ft 462 kts 138°
2026-05-05 16:56 40.98374 12.41543 23886 ft 466 kts 139°
2026-05-05 16:57 40.96032 12.44544 24159 ft 471 kts 139°
2026-05-05 16:57 40.93671 12.47567 24501 ft 474 kts 139°
2026-05-05 16:57 40.91294 12.50608 24849 ft 476 kts 139°
2026-05-05 16:57 40.88907 12.53658 25185 ft 479 kts 139°
2026-05-05 16:58 40.86504 12.56725 25513 ft 482 kts 139°
2026-05-05 16:58 40.84083 12.59813 25805 ft 485 kts 139°
2026-05-05 16:58 40.81646 12.62916 26140 ft 488 kts 139°
2026-05-05 16:58 40.79207 12.66041 26451 ft 491 kts 138°
2026-05-05 16:59 40.76944 12.69446 26769 ft 496 kts 131°
2026-05-05 16:59 40.74831 12.73066 27060 ft 500 kts 130°
2026-05-05 16:59 40.72787 12.76718 27353 ft 503 kts 129°
2026-05-05 16:59 40.70736 12.80465 27611 ft 506 kts 129°
2026-05-05 17:00 40.68683 12.84251 27866 ft 509 kts 129°
2026-05-05 17:00 40.66620 12.88054 28161 ft 511 kts 129°
2026-05-05 17:00 40.64545 12.91868 28465 ft 513 kts 129°
2026-05-05 17:00 40.62456 12.95691 28737 ft 515 kts 129°
2026-05-05 17:01 40.60355 12.99521 28985 ft 518 kts 129°
2026-05-05 17:01 40.58237 13.03370 29241 ft 520 kts 129°
2026-05-05 17:01 40.56116 13.07218 29582 ft 520 kts 129°
2026-05-05 17:01 40.53994 13.11063 29982 ft 519 kts 130°
2026-05-05 17:02 40.51870 13.14907 30278 ft 519 kts 130°
2026-05-05 17:02 40.49745 13.18747 30514 ft 520 kts 129°
2026-05-05 17:02 40.47616 13.22589 30811 ft 520 kts 129°
2026-05-05 17:02 40.45490 13.26422 31132 ft 519 kts 129°
2026-05-05 17:03 40.43366 13.30247 31442 ft 518 kts 129°
2026-05-05 17:03 40.41243 13.34066 31741 ft 518 kts 129°
2026-05-05 17:03 40.39118 13.37882 32031 ft 517 kts 129°
2026-05-05 17:03 40.36999 13.41685 32319 ft 516 kts 129°
2026-05-05 17:04 40.34878 13.45484 32606 ft 516 kts 129°
2026-05-05 17:04 40.32762 13.49271 32906 ft 514 kts 129°
2026-05-05 17:04 40.30652 13.53044 33267 ft 512 kts 129°
2026-05-05 17:04 40.28546 13.56803 33546 ft 511 kts 129°
2026-05-05 17:05 40.26443 13.60554 33806 ft 511 kts 129°
2026-05-05 17:05 40.24340 13.64298 34073 ft 510 kts 129°
2026-05-05 17:05 40.22239 13.68035 34298 ft 510 kts 129°
2026-05-05 17:05 40.20137 13.71770 34520 ft 509 kts 129°
2026-05-05 17:06 40.18036 13.75498 34741 ft 509 kts 129°
2026-05-05 17:06 40.15933 13.79225 34948 ft 509 kts 129°
2026-05-05 17:06 40.13832 13.82945 35157 ft 508 kts 129°
2026-05-05 17:06 40.11731 13.86659 35361 ft 508 kts 129°
2026-05-05 17:07 40.09626 13.90376 35505 ft 509 kts 129°
2026-05-05 17:07 40.07547 13.94043 35692 ft 509 kts 129°
2026-05-05 17:07 40.05437 13.97761 35884 ft 509 kts 129°
2026-05-05 17:07 40.03326 14.01476 36036 ft 510 kts 129°
2026-05-05 17:08 40.01216 14.05186 36194 ft 510 kts 129°
2026-05-05 17:08 39.99101 14.08900 36378 ft 510 kts 129°
2026-05-05 17:08 39.96987 14.12607 36571 ft 509 kts 129°
2026-05-05 17:08 39.94873 14.16312 36746 ft 509 kts 129°
2026-05-05 17:09 39.92758 14.20012 36909 ft 509 kts 129°
2026-05-05 17:09 39.90644 14.23707 37093 ft 509 kts 129°
2026-05-05 17:09 39.86401 14.31108 37337 ft 510 kts 129°
2026-05-05 17:10 39.84276 14.34808 37496 ft 510 kts 129°
2026-05-05 17:10 39.82150 14.38507 37654 ft 510 kts 129°
2026-05-05 17:10 39.80024 14.42200 37827 ft 510 kts 129°
2026-05-05 17:10 39.77898 14.45891 37963 ft 510 kts 129°
2026-05-05 17:11 39.75771 14.49577 38123 ft 510 kts 129°
2026-05-05 17:11 39.73644 14.53259 38303 ft 509 kts 129°
2026-05-05 17:11 39.71515 14.56941 38430 ft 509 kts 129°
2026-05-05 17:11 39.69388 14.60615 38567 ft 509 kts 129°
2026-05-05 17:12 39.67260 14.64287 38695 ft 509 kts 129°
2026-05-05 17:12 39.65130 14.67956 38817 ft 509 kts 129°
2026-05-05 17:12 39.63001 14.71622 38939 ft 508 kts 129°
2026-05-05 17:12 39.60875 14.75278 39037 ft 508 kts 129°
2026-05-05 17:13 39.57332 14.81359 39055 ft 507 kts 129°
2026-05-05 17:13 39.53085 14.88635 39056 ft 505 kts 129°
2026-05-05 17:14 39.48843 14.95885 39059 ft 505 kts 129°
2026-05-05 17:14 39.44608 15.03106 39061 ft 503 kts 129°
2026-05-05 17:15 39.40375 15.10308 39061 ft 502 kts 129°
2026-05-05 17:15 39.36144 15.17491 39061 ft 502 kts 129°
2026-05-05 17:16 39.31907 15.24666 39061 ft 502 kts 129°
2026-05-05 17:16 39.27665 15.31836 39060 ft 502 kts 129°
2026-05-05 17:17 39.23422 15.38990 39061 ft 502 kts 129°
2026-05-05 17:17 39.19176 15.46133 39058 ft 501 kts 129°
2026-05-05 17:18 39.14935 15.53253 39062 ft 501 kts 129°
2026-05-05 17:18 39.10690 15.60362 39061 ft 501 kts 129°
2026-05-05 17:19 39.06440 15.67465 39063 ft 501 kts 129°
2026-05-05 17:19 39.02183 15.74563 39062 ft 501 kts 129°
2026-05-05 17:20 38.97924 15.81649 39062 ft 501 kts 129°
2026-05-05 17:20 38.93656 15.88734 39062 ft 501 kts 129°
2026-05-05 17:21 38.89392 15.95798 39065 ft 500 kts 129°
2026-05-05 17:22 38.83003 16.06353 39082 ft 498 kts 130°
2026-05-05 17:22 38.78754 16.13352 39068 ft 497 kts 130°
2026-05-05 17:23 38.74501 16.20344 39085 ft 497 kts 130°
2026-05-05 17:23 38.70242 16.27328 39068 ft 497 kts 130°
2026-05-05 17:24 38.65978 16.34308 39066 ft 497 kts 130°
2026-05-05 17:24 38.61712 16.41275 39065 ft 498 kts 130°
2026-05-05 17:25 38.57441 16.48236 39067 ft 498 kts 130°
2026-05-05 17:25 38.53162 16.55194 39060 ft 498 kts 130°
2026-05-05 17:26 38.48881 16.62140 39063 ft 498 kts 130°
2026-05-05 17:26 38.44597 16.69077 39068 ft 498 kts 130°
2026-05-05 17:27 38.40304 16.76013 39068 ft 499 kts 130°
2026-05-05 17:27 38.35994 16.82961 39068 ft 500 kts 130°
2026-05-05 17:28 38.31709 16.89855 39067 ft 500 kts 130°
2026-05-05 17:28 38.27387 16.96795 39076 ft 500 kts 130°
2026-05-05 17:29 38.23030 17.03775 39079 ft 500 kts 130°
2026-05-05 17:29 38.18696 17.10703 39079 ft 501 kts 130°
2026-05-05 17:30 38.14377 17.17592 39079 ft 502 kts 130°
2026-05-05 17:30 38.10020 17.24527 39083 ft 502 kts 130°
2026-05-05 17:31 38.05662 17.31451 39085 ft 502 kts 130°
2026-05-05 17:31 38.01293 17.38375 39086 ft 503 kts 130°
2026-05-05 17:32 37.96915 17.45299 39090 ft 505 kts 130°
2026-05-05 17:32 37.92513 17.52247 39091 ft 505 kts 130°
2026-05-05 17:33 37.88107 17.59186 39092 ft 506 kts 130°
2026-05-05 17:33 37.83699 17.66115 39098 ft 505 kts 131°
2026-05-05 17:34 37.79284 17.73040 39094 ft 505 kts 131°
2026-05-05 17:34 37.74863 17.79957 39095 ft 507 kts 131°
2026-05-05 17:35 37.70426 17.86886 39103 ft 508 kts 131°
2026-05-05 17:35 37.65975 17.93823 39104 ft 508 kts 131°
2026-05-05 17:36 37.61525 18.00743 39107 ft 508 kts 131°
2026-05-05 17:36 37.57100 18.07611 39107 ft 508 kts 131°
2026-05-05 17:37 37.52641 18.14517 39112 ft 508 kts 131°
2026-05-05 17:37 37.48180 18.21410 39110 ft 508 kts 131°
2026-05-05 17:38 37.43712 18.28300 39103 ft 508 kts 131°
2026-05-05 17:38 37.39238 18.35186 39116 ft 508 kts 131°
2026-05-05 17:39 37.34756 18.42068 39113 ft 509 kts 131°
2026-05-05 17:39 37.30271 18.48942 39114 ft 509 kts 131°
2026-05-05 17:40 37.25775 18.55818 39119 ft 509 kts 131°
2026-05-05 17:40 37.21275 18.62685 39118 ft 509 kts 131°
2026-05-05 17:41 37.16770 18.69547 39118 ft 509 kts 131°
2026-05-05 17:41 37.12262 18.76398 39115 ft 510 kts 131°
2026-05-05 17:42 37.07741 18.83254 39124 ft 511 kts 131°
2026-05-05 17:42 37.03214 18.90107 39128 ft 511 kts 131°
2026-05-05 17:43 36.98680 18.96956 39125 ft 511 kts 130°
2026-05-05 17:43 36.94732 19.04338 39125 ft 512 kts 121°
2026-05-05 17:44 36.91192 19.12059 39129 ft 512 kts 119°
2026-05-05 17:44 36.87724 19.19822 39126 ft 511 kts 119°
2026-05-05 17:45 36.84256 19.27560 39126 ft 510 kts 119°
2026-05-05 17:45 36.80772 19.35279 39124 ft 510 kts 120°
2026-05-05 17:46 36.77278 19.42982 39134 ft 510 kts 120°
2026-05-05 17:46 36.73801 19.50630 39134 ft 510 kts 120°
2026-05-05 17:47 36.70304 19.58314 39132 ft 509 kts 120°
2026-05-05 17:47 36.66800 19.65982 39132 ft 509 kts 120°
2026-05-05 17:48 36.63287 19.73642 39131 ft 509 kts 120°
2026-05-05 17:48 36.59770 19.81299 39134 ft 509 kts 120°
2026-05-05 17:49 36.56245 19.88957 39135 ft 510 kts 120°
2026-05-05 17:49 36.52714 19.96614 39136 ft 510 kts 120°
2026-05-05 17:50 36.49176 20.04266 39132 ft 510 kts 120°
2026-05-05 17:50 36.45636 20.11907 39132 ft 510 kts 120°
2026-05-05 17:51 36.42086 20.19550 39132 ft 512 kts 120°
2026-05-05 17:51 36.38522 20.27208 39129 ft 512 kts 120°
2026-05-05 17:52 36.34951 20.34862 39132 ft 512 kts 120°
2026-05-05 17:52 36.31376 20.42507 39132 ft 512 kts 120°
2026-05-05 17:53 36.27794 20.50151 39137 ft 513 kts 120°
2026-05-05 17:53 36.24195 20.57811 39134 ft 515 kts 120°
2026-05-05 17:54 36.20585 20.65479 39128 ft 515 kts 120°
2026-05-05 17:54 36.16969 20.73141 39128 ft 515 kts 120°
2026-05-05 17:55 36.13348 20.80797 39132 ft 515 kts 121°
2026-05-05 17:55 36.09714 20.88463 39129 ft 517 kts 121°
2026-05-05 17:56 36.06069 20.96136 39124 ft 518 kts 121°
2026-05-05 17:56 36.02409 21.03823 39130 ft 519 kts 121°
2026-05-05 17:57 35.98741 21.11511 39130 ft 519 kts 121°
2026-05-05 17:57 35.95690 21.17893 39132 ft 521 kts 121°
2026-05-05 17:58 35.91992 21.25604 39129 ft 522 kts 121°
2026-05-05 17:58 35.88289 21.33311 39128 ft 523 kts 121°
2026-05-05 17:59 35.84578 21.41017 39131 ft 522 kts 121°
2026-05-05 17:59 35.80864 21.48715 39131 ft 522 kts 121°
2026-05-05 18:00 35.77145 21.56403 39131 ft 522 kts 121°
2026-05-05 18:00 35.73424 21.64080 39132 ft 522 kts 121°
2026-05-05 18:01 35.69694 21.71759 39131 ft 523 kts 121°
2026-05-05 18:01 35.65958 21.79431 39135 ft 523 kts 121°
2026-05-05 18:02 35.62211 21.87109 39127 ft 525 kts 121°
2026-05-05 18:02 35.58450 21.94798 39130 ft 525 kts 121°
2026-05-05 18:03 35.54687 22.02476 39130 ft 525 kts 121°
2026-05-05 18:03 35.50916 22.10152 39130 ft 525 kts 121°
2026-05-05 18:04 35.47141 22.17818 39130 ft 525 kts 121°
2026-05-05 18:04 35.43360 22.25480 39129 ft 525 kts 121°
2026-05-05 18:05 35.39558 22.33135 39127 ft 525 kts 124°
2026-05-05 18:05 35.35223 22.40333 39129 ft 525 kts 128°
2026-05-05 18:06 35.30730 22.47374 39126 ft 525 kts 129°
2026-05-05 18:06 35.26187 22.54402 39131 ft 527 kts 129°
2026-05-05 18:07 35.21671 22.61388 39126 ft 527 kts 129°
2026-05-05 18:07 35.17129 22.68419 39126 ft 527 kts 129°
2026-05-05 18:08 35.12585 22.75446 39123 ft 527 kts 129°
2026-05-05 18:08 35.08062 22.82426 39118 ft 516 kts 129°
2026-05-05 18:09 35.03671 22.89191 39126 ft 505 kts 129°
2026-05-05 18:09 34.99305 22.95901 39122 ft 505 kts 129°
2026-05-05 18:10 34.94935 23.02604 39121 ft 505 kts 129°
2026-05-05 18:10 34.90555 23.09310 39124 ft 506 kts 129°
2026-05-05 18:11 34.86171 23.16011 39125 ft 506 kts 129°
2026-05-05 18:11 34.81782 23.22706 39124 ft 506 kts 129°
2026-05-05 18:12 34.77388 23.29394 39129 ft 506 kts 129°
2026-05-05 18:12 34.72993 23.36074 39126 ft 506 kts 129°
2026-05-05 18:13 34.68589 23.42754 39118 ft 506 kts 129°
2026-05-05 18:13 34.64186 23.49420 39119 ft 506 kts 129°
2026-05-05 18:14 34.59772 23.56069 39121 ft 506 kts 129°
2026-05-05 18:14 34.55353 23.62713 39116 ft 506 kts 129°
2026-05-05 18:15 34.50934 23.69351 39119 ft 506 kts 129°
2026-05-05 18:15 34.46511 23.75983 39124 ft 506 kts 129°
2026-05-05 18:16 34.42091 23.82600 39118 ft 505 kts 129°
2026-05-05 18:16 34.37675 23.89198 39119 ft 504 kts 129°
2026-05-05 18:17 34.33254 23.95791 39116 ft 504 kts 129°
2026-05-05 18:17 34.28829 24.02376 39102 ft 504 kts 129°
2026-05-05 18:18 34.24400 24.08957 39120 ft 504 kts 129°
2026-05-05 18:18 34.19983 24.15507 39117 ft 503 kts 129°
2026-05-05 18:19 34.15565 24.22047 39119 ft 502 kts 129°
2026-05-05 18:19 34.11144 24.28580 39114 ft 502 kts 129°
2026-05-05 18:20 34.06719 24.35106 39113 ft 502 kts 129°
2026-05-05 18:20 34.02293 24.41621 39115 ft 501 kts 129°
2026-05-05 18:21 33.97494 24.47665 39118 ft 498 kts 138°
2026-05-05 18:21 33.92369 24.53284 39108 ft 498 kts 139°
2026-05-05 18:22 33.87188 24.58823 39115 ft 498 kts 140°
2026-05-05 18:22 33.82007 24.64353 39116 ft 498 kts 140°
2026-05-05 18:23 33.76829 24.69890 39116 ft 498 kts 140°
2026-05-05 18:23 33.71655 24.75425 39114 ft 498 kts 140°
2026-05-05 18:24 33.66478 24.80954 39119 ft 498 kts 140°
2026-05-05 18:24 33.61334 24.86439 39116 ft 498 kts 140°
2026-05-05 18:25 33.56149 24.91957 39118 ft 498 kts 140°
2026-05-05 18:25 33.50960 24.97470 39119 ft 499 kts 140°
2026-05-05 18:26 33.45766 25.02980 39127 ft 498 kts 140°
2026-05-05 18:26 33.40582 25.08470 39109 ft 497 kts 140°
2026-05-05 18:27 33.35408 25.13940 39117 ft 496 kts 140°
2026-05-05 18:27 33.30229 25.19406 39118 ft 496 kts 140°
2026-05-05 18:28 33.22461 25.27588 39118 ft 496 kts 140°
2026-05-05 18:28 33.17281 25.33033 39146 ft 496 kts 140°
2026-05-05 18:29 33.12106 25.38464 39116 ft 494 kts 140°
2026-05-05 18:29 33.06950 25.43866 39121 ft 493 kts 140°
2026-05-05 18:30 33.01792 25.49261 39108 ft 493 kts 140°
2026-05-05 18:30 32.96624 25.54658 39125 ft 494 kts 140°
2026-05-05 18:31 32.91444 25.60058 39107 ft 495 kts 140°
2026-05-05 18:31 32.86264 25.65450 39119 ft 495 kts 140°
2026-05-05 18:32 32.81097 25.70821 39125 ft 493 kts 140°
2026-05-05 18:32 32.75937 25.76175 39128 ft 492 kts 140°
2026-05-05 18:33 32.70808 25.81488 39122 ft 492 kts 140°
2026-05-05 18:33 32.65642 25.86832 39124 ft 492 kts 140°
2026-05-05 18:34 32.60475 25.92166 39125 ft 492 kts 140°
2026-05-05 18:34 32.55309 25.97493 39124 ft 492 kts 141°
2026-05-05 18:35 32.50150 26.02804 39123 ft 490 kts 141°
2026-05-05 18:35 32.45000 26.08097 39124 ft 490 kts 141°
2026-05-05 18:36 32.39849 26.13383 39123 ft 490 kts 141°
2026-05-05 18:36 32.34691 26.18667 39126 ft 490 kts 141°
2026-05-05 18:37 32.29535 26.23941 39124 ft 490 kts 141°
2026-05-05 18:37 32.24378 26.29208 39124 ft 489 kts 141°
2026-05-05 18:38 32.19239 26.34449 39124 ft 488 kts 141°
2026-05-05 18:38 32.14096 26.39685 39124 ft 488 kts 141°
2026-05-05 18:39 32.08953 26.44913 39127 ft 488 kts 141°
2026-05-05 18:39 32.03814 26.50130 39125 ft 487 kts 141°
2026-05-05 18:40 31.98677 26.55336 39129 ft 487 kts 141°
2026-05-05 18:40 31.93544 26.60530 39129 ft 486 kts 142°
2026-05-05 18:41 31.88424 26.65704 39129 ft 485 kts 142°
2026-05-05 18:41 31.83297 26.70876 39135 ft 485 kts 142°
2026-05-05 18:42 31.79040 26.75164 39135 ft 485 kts 142°
2026-05-05 18:42 31.73911 26.80324 39129 ft 485 kts 142°
2026-05-05 18:43 31.68774 26.85483 39140 ft 487 kts 142°
2026-05-05 18:43 31.63627 26.90645 39141 ft 486 kts 142°
2026-05-05 18:44 31.58479 26.95801 39148 ft 486 kts 142°
2026-05-05 18:44 31.53333 27.00947 39148 ft 486 kts 142°
2026-05-05 18:45 31.48185 27.06088 39154 ft 486 kts 142°
2026-05-05 18:45 31.43036 27.11221 39141 ft 486 kts 142°
2026-05-05 18:46 31.37869 27.16364 39157 ft 489 kts 142°
2026-05-05 18:46 31.32601 27.21375 39129 ft 485 kts 150°
2026-05-05 18:47 31.26721 27.25125 39129 ft 480 kts 158°
2026-05-05 18:47 31.20680 27.28449 39133 ft 480 kts 160°
2026-05-05 18:48 31.14613 27.31691 39141 ft 480 kts 160°
2026-05-05 18:48 31.08561 27.34939 39143 ft 478 kts 160°
2026-05-05 18:49 31.02540 27.38189 39155 ft 476 kts 160°
2026-05-05 18:49 30.96528 27.41437 39150 ft 476 kts 160°
2026-05-05 18:50 30.90855 27.45509 39150 ft 483 kts 147°
2026-05-05 18:50 30.85531 27.50302 39159 ft 484 kts 145°
2026-05-05 18:51 30.80279 27.55216 39150 ft 484 kts 145°
2026-05-05 18:51 30.75065 27.60087 39148 ft 484 kts 145°
2026-05-05 18:52 30.69805 27.64965 39148 ft 484 kts 146°
2026-05-05 18:52 30.64536 27.69828 39146 ft 484 kts 146°
2026-05-05 18:53 30.59262 27.74686 39141 ft 484 kts 146°
2026-05-05 18:53 30.53990 27.79537 39141 ft 484 kts 146°
2026-05-05 18:54 30.48718 27.84382 39140 ft 485 kts 146°
2026-05-05 18:54 30.43387 27.89270 39138 ft 492 kts 146°
2026-05-05 18:55 30.37979 27.94223 39139 ft 499 kts 146°
2026-05-05 18:55 30.32504 27.99233 39142 ft 505 kts 146°
2026-05-05 18:56 30.26970 28.04292 39127 ft 507 kts 146°
2026-05-05 18:56 30.21445 28.09337 39134 ft 505 kts 146°
2026-05-05 18:57 30.15933 28.14361 39125 ft 504 kts 146°
2026-05-05 18:57 30.10423 28.19372 39129 ft 504 kts 146°
2026-05-05 18:58 30.04914 28.24375 39122 ft 504 kts 146°
2026-05-05 18:58 29.99401 28.29376 39125 ft 504 kts 146°
2026-05-05 18:59 29.93887 28.34370 39127 ft 504 kts 146°
2026-05-05 18:59 29.88385 28.39384 39097 ft 505 kts 143°
2026-05-05 19:00 29.83643 28.45312 39120 ft 508 kts 133°
2026-05-05 19:00 29.79269 28.51725 39124 ft 510 kts 131°
2026-05-05 19:01 29.74970 28.58213 39119 ft 510 kts 130°
2026-05-05 19:01 29.70664 28.64686 39115 ft 509 kts 131°
2026-05-05 19:02 29.66341 28.71135 39113 ft 508 kts 131°
2026-05-05 19:02 29.62019 28.77563 39111 ft 508 kts 131°
2026-05-05 19:03 29.57693 28.83979 39110 ft 508 kts 131°
2026-05-05 19:03 29.53359 28.90396 39111 ft 508 kts 131°
2026-05-05 19:04 29.49028 28.96803 39087 ft 508 kts 132°
2026-05-05 19:04 29.44803 29.03312 39118 ft 511 kts 124°
2026-05-05 19:05 29.42108 29.10880 39109 ft 518 kts 102°
2026-05-05 19:05 29.41497 29.19123 39105 ft 521 kts 92°
2026-05-05 19:06 29.41421 29.27432 39105 ft 522 kts 90°
2026-05-05 19:06 29.41398 29.35770 39120 ft 523 kts 90°
2026-05-05 19:07 29.41328 29.44097 39111 ft 522 kts 91°
2026-05-05 19:07 29.41224 29.52407 39105 ft 521 kts 91°
2026-05-05 19:08 29.41105 29.60734 39107 ft 523 kts 92°
2026-05-05 19:08 29.40981 29.69086 39105 ft 524 kts 92°
2026-05-05 19:09 29.40853 29.77450 39108 ft 524 kts 92°
2026-05-05 19:09 29.40722 29.85809 39102 ft 525 kts 92°
2026-05-05 19:10 29.40584 29.94196 39103 ft 526 kts 92°
2026-05-05 19:10 29.40441 30.02588 39104 ft 526 kts 92°
2026-05-05 19:11 29.40293 30.10981 39103 ft 526 kts 92°
2026-05-05 19:11 29.40141 30.19320 39106 ft 528 kts 93°
2026-05-05 19:12 29.39981 30.27738 39108 ft 528 kts 93°
2026-05-05 19:12 29.39152 30.36043 39098 ft 522 kts 109°
2026-05-05 19:13 29.37902 30.39912 39093 ft 515 kts 121°
2026-05-05 19:13 29.36080 30.43391 39093 ft 505 kts 133°
2026-05-05 19:13 29.31489 30.49400 39108 ft 500 kts 140°
2026-05-05 19:14 29.26642 30.55101 39088 ft 499 kts 141°
2026-05-05 19:14 29.21775 30.60779 39098 ft 500 kts 141°
2026-05-05 19:15 29.16934 30.66488 39089 ft 500 kts 140°
2026-05-05 19:15 29.12106 30.72216 39103 ft 500 kts 140°
2026-05-05 19:16 29.07280 30.77941 39110 ft 500 kts 140°
2026-05-05 19:16 29.02451 30.83660 39097 ft 500 kts 140°
2026-05-05 19:17 28.97625 30.89365 39107 ft 499 kts 141°
2026-05-05 19:17 28.92798 30.95062 39108 ft 499 kts 141°
2026-05-05 19:18 28.87971 31.00750 39104 ft 499 kts 141°
2026-05-05 19:18 28.83142 31.06433 39105 ft 499 kts 141°
2026-05-05 19:19 28.78313 31.12107 39103 ft 498 kts 141°
2026-05-05 19:19 28.73482 31.17777 39104 ft 498 kts 141°
2026-05-05 19:20 28.68656 31.23450 39088 ft 499 kts 140°
2026-05-05 19:20 28.63998 31.29272 39106 ft 501 kts 139°
2026-05-05 19:21 28.59366 31.35199 39104 ft 501 kts 139°
2026-05-05 19:21 28.54714 31.41103 39102 ft 501 kts 139°
2026-05-05 19:22 28.50042 31.46980 39104 ft 501 kts 139°
2026-05-05 19:22 28.45365 31.52843 39101 ft 501 kts 140°
2026-05-05 19:23 28.40688 31.58695 39102 ft 500 kts 140°
2026-05-05 19:23 28.36011 31.64539 39107 ft 500 kts 140°
2026-05-05 19:24 28.31336 31.70374 39078 ft 500 kts 140°
2026-05-05 19:24 28.26656 31.76209 39104 ft 499 kts 140°
2026-05-05 19:25 28.21977 31.82032 39106 ft 499 kts 140°
2026-05-05 19:25 28.17302 31.87845 39109 ft 498 kts 140°
2026-05-05 19:26 28.12627 31.93648 39109 ft 498 kts 140°
2026-05-05 19:26 28.07951 31.99444 39109 ft 498 kts 140°
2026-05-05 19:27 28.03443 32.05442 39108 ft 507 kts 130°
2026-05-05 19:27 27.99807 32.12351 39098 ft 513 kts 126°
2026-05-05 19:28 27.96961 32.18242 39094 ft 513 kts 125°
2026-05-05 19:28 27.93578 32.25355 39085 ft 513 kts 125°
2026-05-05 19:29 27.90179 32.32451 39030 ft 513 kts 126°
2026-05-05 19:29 27.86760 32.39532 39056 ft 513 kts 126°
2026-05-05 19:30 27.83327 32.46612 39051 ft 514 kts 126°
2026-05-05 19:30 27.79890 32.53688 39049 ft 514 kts 126°
2026-05-05 19:31 27.76451 32.60761 39042 ft 513 kts 126°
2026-05-05 19:31 27.73011 32.67823 39040 ft 514 kts 126°
2026-05-05 19:32 27.69564 32.74885 39043 ft 514 kts 126°
2026-05-05 19:32 27.66114 32.81945 39037 ft 514 kts 126°
2026-05-05 19:33 27.62663 32.88994 39007 ft 513 kts 126°
2026-05-05 19:33 27.59208 32.96040 39030 ft 514 kts 127°
2026-05-05 19:34 27.55745 33.03089 39028 ft 514 kts 127°
2026-05-05 19:35 27.50550 33.13646 39027 ft 514 kts 127°
2026-05-05 19:35 27.47105 33.20631 39023 ft 513 kts 127°
2026-05-05 19:36 27.43639 33.27647 39019 ft 513 kts 127°
2026-05-05 19:36 27.40163 33.34672 39022 ft 513 kts 127°
2026-05-05 19:37 27.36688 33.41687 39014 ft 513 kts 127°
2026-05-05 19:37 27.33209 33.48697 39000 ft 513 kts 127°
2026-05-05 19:38 27.29724 33.55698 39007 ft 513 kts 127°
2026-05-05 19:38 27.26238 33.62691 39006 ft 513 kts 127°
2026-05-05 19:39 27.22752 33.69677 38989 ft 513 kts 127°
2026-05-05 19:39 27.19263 33.76659 39021 ft 512 kts 127°
2026-05-05 19:40 27.16233 33.83977 39020 ft 520 kts 120°
2026-05-05 19:40 27.13511 33.91511 39016 ft 521 kts 119°
2026-05-05 19:41 27.10841 33.99082 39008 ft 522 kts 119°
2026-05-05 19:41 27.08161 34.06655 38997 ft 522 kts 119°
2026-05-05 19:42 27.05462 34.14225 38987 ft 522 kts 119°
2026-05-05 19:42 27.02757 34.21783 38971 ft 522 kts 120°
2026-05-05 19:43 27.00067 34.29292 38984 ft 523 kts 120°
2026-05-05 19:43 26.97326 34.36907 38982 ft 523 kts 120°
2026-05-05 19:44 26.94620 34.44415 38980 ft 523 kts 120°
2026-05-05 19:44 26.91873 34.52025 38982 ft 523 kts 120°
2026-05-05 19:45 26.89140 34.59581 38981 ft 523 kts 120°
2026-05-05 19:45 26.86420 34.67087 38979 ft 523 kts 120°
2026-05-05 19:46 26.83679 34.74640 38966 ft 523 kts 120°
2026-05-05 19:46 26.80937 34.82179 38980 ft 523 kts 120°
2026-05-05 19:47 26.78189 34.89720 38982 ft 523 kts 121°
2026-05-05 19:47 26.75441 34.97256 38982 ft 523 kts 121°
2026-05-05 19:48 26.72687 35.04791 38974 ft 523 kts 121°
2026-05-05 19:48 26.69927 35.12320 38974 ft 523 kts 121°
2026-05-05 19:49 26.67163 35.19852 38974 ft 523 kts 121°
2026-05-05 19:49 26.64397 35.27377 38975 ft 523 kts 121°
2026-05-05 19:50 26.61625 35.34901 38976 ft 524 kts 121°
2026-05-05 19:50 26.58851 35.42421 38972 ft 523 kts 121°
2026-05-05 19:51 26.56073 35.49936 38964 ft 523 kts 121°
2026-05-05 19:51 26.53237 35.57421 38959 ft 523 kts 122°
2026-05-05 19:52 26.50369 35.64874 38958 ft 523 kts 122°
2026-05-05 19:52 26.47503 35.72330 38955 ft 523 kts 122°
2026-05-05 19:53 26.44641 35.79788 38937 ft 523 kts 122°
2026-05-05 19:53 26.41781 35.87236 38955 ft 522 kts 122°
2026-05-05 19:54 26.38920 35.94675 38959 ft 522 kts 122°
2026-05-05 19:54 26.36057 36.02103 38955 ft 522 kts 122°
2026-05-05 19:55 26.33188 36.09531 38952 ft 522 kts 122°
2026-05-05 19:55 26.30316 36.16955 38949 ft 521 kts 122°
2026-05-05 19:56 26.27440 36.24374 38944 ft 521 kts 122°
2026-05-05 19:56 26.24559 36.31791 38941 ft 522 kts 122°
2026-05-05 19:57 26.21670 36.39217 38939 ft 522 kts 122°
2026-05-05 19:57 26.19088 36.46764 38939 ft 535 kts 111°
2026-05-05 19:57 26.18505 36.50888 38926 ft 545 kts 98°
2026-05-05 19:58 26.18562 36.55137 38946 ft 552 kts 91°
2026-05-05 19:58 26.19284 36.63675 38954 ft 556 kts 87°
2026-05-05 19:59 26.20221 36.72227 38951 ft 556 kts 87°
2026-05-05 19:59 26.21134 36.80779 38949 ft 557 kts 88°
2026-05-05 20:00 26.21998 36.89349 38953 ft 557 kts 88°
2026-05-05 20:00 26.22839 36.97922 38960 ft 557 kts 88°
2026-05-05 20:01 26.23673 37.06493 38963 ft 557 kts 88°
2026-05-05 20:01 26.24503 37.15065 38959 ft 556 kts 88°
2026-05-05 20:02 26.25329 37.23638 38950 ft 556 kts 88°
2026-05-05 20:02 26.26154 37.32225 38974 ft 558 kts 88°
2026-05-05 20:03 26.26972 37.40823 38979 ft 558 kts 88°
2026-05-05 20:03 26.27785 37.49417 38976 ft 558 kts 88°
2026-05-05 20:04 26.28593 37.58035 38976 ft 562 kts 88°
2026-05-05 20:04 26.29402 37.66723 38975 ft 565 kts 88°
2026-05-05 20:05 26.30206 37.75427 38954 ft 565 kts 88°
2026-05-05 20:05 26.31013 37.84132 38961 ft 564 kts 88°
2026-05-05 20:06 26.31815 37.92834 38961 ft 564 kts 89°
2026-05-05 20:06 26.32609 38.01538 38952 ft 564 kts 89°
2026-05-05 20:07 26.33400 38.10240 38960 ft 564 kts 89°
2026-05-05 20:07 26.34181 38.18944 38961 ft 564 kts 89°
2026-05-05 20:08 26.34954 38.27566 38956 ft 561 kts 89°
2026-05-05 20:08 26.35721 38.36216 38961 ft 560 kts 89°
2026-05-05 20:09 26.36477 38.44859 38968 ft 560 kts 89°
2026-05-05 20:09 26.37229 38.53502 38987 ft 561 kts 89°
2026-05-05 20:10 26.37979 38.62177 38974 ft 562 kts 89°
2026-05-05 20:10 26.38727 38.70857 38971 ft 562 kts 89°
2026-05-05 20:11 26.39467 38.79510 38985 ft 560 kts 89°
2026-05-05 20:11 26.40200 38.88159 38984 ft 560 kts 89°
2026-05-05 20:12 26.40929 38.96814 38987 ft 561 kts 89°
2026-05-05 20:12 26.41653 39.05477 38987 ft 561 kts 89°
2026-05-05 20:13 26.42371 39.14134 38978 ft 561 kts 89°
2026-05-05 20:13 26.43086 39.22812 38986 ft 562 kts 89°
2026-05-05 20:14 26.43660 39.30026 38986 ft 561 kts 90°
2026-05-05 20:14 26.44118 39.38701 38983 ft 560 kts 92°
2026-05-05 20:15 26.44492 39.47376 38988 ft 560 kts 92°
2026-05-05 20:15 26.44888 39.56056 38991 ft 560 kts 92°
2026-05-05 20:16 26.45306 39.64733 38992 ft 560 kts 92°
2026-05-05 20:16 26.45728 39.73407 39000 ft 560 kts 92°
2026-05-05 20:17 26.46146 39.82096 38985 ft 561 kts 92°
2026-05-05 20:17 26.46556 39.90791 38994 ft 561 kts 92°
2026-05-05 20:18 26.46961 39.99486 39002 ft 561 kts 92°
2026-05-05 20:18 26.47360 40.08183 38995 ft 562 kts 92°
2026-05-05 20:19 26.47755 40.16900 38995 ft 563 kts 92°
2026-05-05 20:19 26.48142 40.25564 38976 ft 562 kts 92°
2026-05-05 20:20 26.48526 40.34272 39000 ft 562 kts 92°
2026-05-05 20:20 26.48905 40.42985 38993 ft 562 kts 92°
2026-05-05 20:21 26.49279 40.51695 38986 ft 561 kts 92°
2026-05-05 20:21 26.49648 40.60388 38991 ft 560 kts 92°
2026-05-05 20:22 26.50010 40.69078 38992 ft 560 kts 92°
2026-05-05 20:22 26.50363 40.77768 38988 ft 560 kts 92°
2026-05-05 20:23 26.50712 40.86456 38989 ft 560 kts 92°
2026-05-05 20:23 26.51057 40.95145 38987 ft 560 kts 92°
2026-05-05 20:24 26.51326 41.03828 38996 ft 556 kts 98°
2026-05-05 20:24 26.50894 41.12420 38993 ft 554 kts 100°
2026-05-05 20:25 26.50300 41.20987 38993 ft 553 kts 101°
2026-05-05 20:25 26.49671 41.29547 38984 ft 554 kts 101°
2026-05-05 20:26 26.49048 41.38111 38967 ft 554 kts 101°
2026-05-05 20:26 26.48433 41.46622 38975 ft 554 kts 101°
2026-05-05 20:27 26.47811 41.55186 38969 ft 553 kts 101°
2026-05-05 20:27 26.47181 41.63807 38961 ft 554 kts 101°
2026-05-05 20:28 26.46552 41.72324 38969 ft 554 kts 101°
2026-05-05 20:28 26.45916 41.80878 38958 ft 554 kts 101°
2026-05-05 20:29 26.45272 41.89447 38962 ft 554 kts 101°
2026-05-05 20:29 26.44623 41.98022 38959 ft 555 kts 101°
2026-05-05 20:30 26.43969 42.06600 38971 ft 555 kts 101°
2026-05-05 20:30 26.43309 42.15188 38967 ft 556 kts 101°
2026-05-05 20:31 26.42645 42.23776 38965 ft 555 kts 101°
2026-05-05 20:31 26.41979 42.32332 38970 ft 552 kts 101°
2026-05-05 20:32 26.41308 42.40855 38942 ft 552 kts 101°
2026-05-05 20:32 26.40634 42.49358 38984 ft 548 kts 101°
2026-05-05 20:33 26.39957 42.57829 38973 ft 549 kts 101°
2026-05-05 20:33 26.39273 42.66302 38979 ft 548 kts 101°
2026-05-05 20:34 26.38587 42.74765 38976 ft 547 kts 101°
2026-05-05 20:34 26.37897 42.83216 38968 ft 547 kts 101°
2026-05-05 20:35 26.37201 42.91672 38975 ft 547 kts 102°
2026-05-05 20:35 26.36501 43.00128 38966 ft 548 kts 102°
2026-05-05 20:36 26.35799 43.08579 38971 ft 547 kts 102°
2026-05-05 20:36 26.35095 43.16961 38966 ft 546 kts 102°
2026-05-05 20:37 26.34378 43.25392 38963 ft 546 kts 102°
2026-05-05 20:37 26.33655 43.33840 38963 ft 549 kts 102°
2026-05-05 20:38 26.32926 43.42317 38956 ft 550 kts 102°
2026-05-05 20:38 26.32193 43.50804 38954 ft 550 kts 102°
2026-05-05 20:39 26.31454 43.59295 38943 ft 550 kts 102°
2026-05-05 20:39 26.30710 43.67780 38939 ft 550 kts 102°
2026-05-05 20:40 26.29974 43.76270 38938 ft 552 kts 99°
2026-05-05 20:40 26.29851 43.84856 38937 ft 555 kts 95°
2026-05-05 20:41 26.29910 43.93483 38938 ft 557 kts 94°
2026-05-05 20:41 26.30001 44.02113 38936 ft 558 kts 94°
2026-05-05 20:42 26.30077 44.10762 38940 ft 559 kts 94°
2026-05-05 20:42 26.30139 44.19413 38929 ft 558 kts 94°
2026-05-05 20:43 26.30191 44.28062 38927 ft 558 kts 95°
2026-05-05 20:43 26.30238 44.36704 38927 ft 557 kts 95°
2026-05-05 20:44 26.30280 44.45342 38919 ft 557 kts 95°
2026-05-05 20:44 26.31121 44.53922 38934 ft 563 kts 76°
2026-05-05 20:45 26.34967 44.66382 38920 ft 568 kts 70°
2026-05-05 20:45 26.37785 44.74612 38919 ft 568 kts 70°
2026-05-05 20:46 26.40580 44.82842 38933 ft 567 kts 70°
2026-05-05 20:46 26.43323 44.91047 38928 ft 569 kts 71°
2026-05-05 20:47 26.46070 44.99326 38930 ft 569 kts 71°
2026-05-05 20:47 26.48811 45.07608 38925 ft 568 kts 71°
2026-05-05 20:48 26.51547 45.15875 38919 ft 568 kts 71°
2026-05-05 20:48 26.54281 45.24158 38921 ft 568 kts 71°
2026-05-05 20:49 26.57005 45.32436 38922 ft 568 kts 71°
2026-05-05 20:49 26.59726 45.40718 38919 ft 568 kts 71°
2026-05-05 20:50 26.62003 45.47660 38917 ft 568 kts 71°
2026-05-05 20:50 26.65156 45.57295 38916 ft 568 kts 71°
2026-05-05 20:51 26.67864 45.65592 38912 ft 569 kts 71°
2026-05-05 20:51 26.70571 45.73903 38909 ft 569 kts 71°
2026-05-05 20:52 26.73273 45.82219 38907 ft 569 kts 71°
2026-05-05 20:52 26.75971 45.90540 38905 ft 569 kts 71°
2026-05-05 20:53 26.78665 45.98871 38900 ft 569 kts 71°
2026-05-05 20:53 26.81355 46.07205 38895 ft 569 kts 71°
2026-05-05 20:54 26.84039 46.15542 38887 ft 569 kts 71°
2026-05-05 20:54 26.86719 46.23885 38892 ft 570 kts 72°
2026-05-05 20:55 26.89379 46.32184 38886 ft 569 kts 72°
2026-05-05 20:55 26.91590 46.40637 38883 ft 562 kts 84°
2026-05-05 20:56 26.92642 46.49297 38867 ft 560 kts 87°
2026-05-05 20:56 26.93466 46.57951 38876 ft 557 kts 88°
2026-05-05 20:57 26.94238 46.66579 38870 ft 556 kts 88°
2026-05-05 20:57 26.95015 46.75187 38870 ft 555 kts 88°
2026-05-05 20:58 26.95800 46.83779 38864 ft 554 kts 88°
2026-05-05 20:58 26.96582 46.92363 38864 ft 553 kts 88°
2026-05-05 20:59 26.97357 47.00923 38865 ft 552 kts 88°
2026-05-05 20:59 26.98125 47.09472 38858 ft 551 kts 88°
2026-05-05 21:00 26.98887 47.18013 38858 ft 550 kts 88°
2026-05-05 21:00 26.99642 47.26533 38853 ft 549 kts 88°
2026-05-05 21:01 27.00266 47.33611 38844 ft 548 kts 88°
2026-05-05 21:01 27.01009 47.42107 38843 ft 547 kts 88°
2026-05-05 21:02 27.01747 47.50585 38843 ft 546 kts 88°
2026-05-05 21:02 27.02478 47.59063 38834 ft 545 kts 88°
2026-05-05 21:03 27.03202 47.67524 38829 ft 545 kts 88°
2026-05-05 21:03 27.03921 47.75977 38823 ft 544 kts 88°
2026-05-05 21:04 27.04634 47.84423 38821 ft 543 kts 88°
2026-05-05 21:04 27.05341 47.92859 38815 ft 543 kts 88°
2026-05-05 21:05 27.05987 48.01280 38810 ft 541 kts 90°
2026-05-05 21:05 27.06374 48.09699 38802 ft 539 kts 91°
2026-05-05 21:06 27.06714 48.18098 38801 ft 539 kts 91°
2026-05-05 21:06 27.07083 48.26490 38791 ft 537 kts 90°
2026-05-05 21:07 27.07474 48.34784 38783 ft 527 kts 90°
2026-05-05 21:07 27.07872 48.42923 38779 ft 517 kts 90°
2026-05-05 21:08 27.08248 48.50908 38770 ft 507 kts 90°
2026-05-05 21:08 27.08602 48.58736 38765 ft 498 kts 90°
2026-05-05 21:09 27.08942 48.66417 38761 ft 488 kts 90°
2026-05-05 21:09 27.09268 48.73890 38756 ft 478 kts 90°
2026-05-05 21:10 27.09585 48.81260 38751 ft 468 kts 90°
2026-05-05 21:10 27.09807 48.88460 38748 ft 453 kts 95°
2026-05-05 21:11 27.09587 48.95436 38751 ft 441 kts 97°
2026-05-05 21:11 27.09286 49.02212 38750 ft 429 kts 97°
2026-05-05 21:12 27.09127 49.05522 38798 ft 418 kts 98°
2026-05-05 21:12 27.08974 49.08709 38892 ft 402 kts 98°
2026-05-05 21:12 27.08822 49.11817 38786 ft 394 kts 98°
2026-05-05 21:12 27.08672 49.14844 38741 ft 383 kts 98°
2026-05-05 21:13 27.08527 49.17784 38730 ft 371 kts 98°
2026-05-05 21:13 27.08388 49.20627 38725 ft 358 kts 99°
2026-05-05 21:13 27.08252 49.23369 38719 ft 344 kts 99°
2026-05-05 21:13 27.08121 49.25985 38710 ft 329 kts 98°
2026-05-05 21:14 27.07997 49.28507 38587 ft 318 kts 99°
2026-05-05 21:14 27.07898 49.30949 38392 ft 311 kts 96°
2026-05-05 21:14 27.07953 49.33391 37910 ft 318 kts 87°
2026-05-05 21:14 27.08364 49.35866 37393 ft 327 kts 71°
2026-05-05 21:15 27.09137 49.38281 36796 ft 336 kts 72°
2026-05-05 21:15 27.09890 49.40888 35634 ft 370 kts 70°
2026-05-05 21:15 27.10755 49.43721 34696 ft 395 kts 69°
2026-05-05 21:15 27.11705 49.46674 33982 ft 414 kts 68°
2026-05-05 21:16 27.12760 49.49788 33121 ft 438 kts 67°
2026-05-05 21:16 27.13916 49.53044 32320 ft 460 kts 66°
2026-05-05 21:16 27.15167 49.56426 31627 ft 477 kts 65°
2026-05-05 21:16 27.16508 49.59900 31020 ft 491 kts 64°
2026-05-05 21:17 27.17912 49.63425 30464 ft 499 kts 64°
2026-05-05 21:17 27.19360 49.66992 29924 ft 505 kts 63°
2026-05-05 21:17 27.20844 49.70561 29805 ft 500 kts 63°
2026-05-05 21:17 27.22267 49.74068 29977 ft 486 kts 66°
2026-05-05 21:18 27.23325 49.77528 30888 ft 447 kts 75°
2026-05-05 21:18 27.23947 49.80769 31980 ft 404 kts 85°
2026-05-05 21:18 27.24132 49.83749 32822 ft 361 kts 97°
2026-05-05 21:18 27.23909 49.86469 32988 ft 340 kts 109°
2026-05-05 21:19 27.23333 49.89009 32622 ft 335 kts 119°
2026-05-05 21:19 27.22415 49.91419 32062 ft 336 kts 129°
2026-05-05 21:19 27.21196 49.93632 31776 ft 327 kts 137°
2026-05-05 21:19 27.19863 49.95641 31657 ft 324 kts 133°
2026-05-05 21:20 27.18735 49.97946 30929 ft 349 kts 123°
2026-05-05 21:20 27.17634 50.00447 30318 ft 365 kts 123°
2026-05-05 21:20 27.16535 50.03078 29734 ft 380 kts 120°
2026-05-05 21:20 27.15461 50.05857 29074 ft 395 kts 117°
2026-05-05 21:21 27.14480 50.08801 28435 ft 410 kts 113°
2026-05-05 21:21 27.13610 50.11907 27796 ft 424 kts 109°
2026-05-05 21:21 27.12864 50.15162 27166 ft 437 kts 105°
2026-05-05 21:21 27.12261 50.18550 26538 ft 448 kts 103°
2026-05-05 21:22 27.11664 50.22025 25895 ft 458 kts 103°
2026-05-05 21:22 27.11062 50.25552 25668 ft 457 kts 102°
2026-05-05 21:22 27.10500 50.29013 25812 ft 445 kts 102°
2026-05-05 21:22 27.09981 50.32399 25911 ft 435 kts 101°
2026-05-05 21:23 27.09501 50.35715 25998 ft 426 kts 101°
2026-05-05 21:23 27.08965 50.38929 26068 ft 415 kts 107°
2026-05-05 21:23 27.08174 50.41994 26146 ft 403 kts 112°
2026-05-05 21:23 27.07189 50.44867 26226 ft 387 kts 117°
2026-05-05 21:24 27.06011 50.47528 26282 ft 375 kts 124°
2026-05-05 21:24 27.04626 50.49954 26332 ft 363 kts 132°
2026-05-05 21:24 27.03129 50.52133 26395 ft 356 kts 129°
2026-05-05 21:24 27.01822 50.54460 26424 ft 349 kts 126°
2026-05-05 21:25 27.00609 50.56795 26450 ft 344 kts 124°
2026-05-05 21:25 26.99485 50.59136 26463 ft 338 kts 122°
2026-05-05 21:25 26.98451 50.61482 26462 ft 333 kts 120°
2026-05-05 21:25 26.97510 50.63835 26451 ft 328 kts 117°
2026-05-05 21:26 26.96665 50.66193 26417 ft 324 kts 115°
2026-05-05 21:26 26.95874 50.68534 26392 ft 319 kts 115°
2026-05-05 21:26 26.95129 50.70856 26339 ft 313 kts 112°
2026-05-05 21:26 26.94524 50.73156 26294 ft 301 kts 106°
2026-05-05 21:27 26.94144 50.75374 26341 ft 280 kts 101°
2026-05-05 21:27 26.93985 50.77485 26286 ft 264 kts 89°
2026-05-05 21:27 26.94064 50.79486 26058 ft 253 kts 90°
2026-05-05 21:27 26.93997 50.81527 25174 ft 274 kts 95°
2026-05-05 21:28 26.93903 50.83741 24245 ft 294 kts 91°
2026-05-05 21:28 26.94072 50.86067 23604 ft 298 kts 77°
2026-05-05 21:28 26.94647 50.88201 23497 ft 276 kts 66°
2026-05-05 21:28 26.95164 50.90220 23228 ft 264 kts 77°
2026-05-05 21:29 26.95560 50.92182 22943 ft 253 kts 72°
2026-05-05 21:29 26.96190 50.93971 22657 ft 241 kts 56°
2026-05-05 21:29 26.96927 50.95619 22342 ft 232 kts 61°
2026-05-05 21:29 26.97653 50.97210 21970 ft 228 kts 60°
2026-05-05 21:30 26.98270 50.98833 21604 ft 225 kts 66°
2026-05-05 21:30 26.98709 51.00491 21247 ft 219 kts 81°
2026-05-05 21:30 26.98838 51.02168 20912 ft 214 kts 89°
2026-05-05 21:30 26.98872 51.03820 20561 ft 210 kts 86°
2026-05-05 21:31 26.99081 51.05428 20194 ft 208 kts 75°
2026-05-05 21:31 26.99497 51.06985 19776 ft 209 kts 65°
2026-05-05 21:31 27.00130 51.08443 19389 ft 207 kts 56°
2026-05-05 21:31 27.00973 51.09728 19017 ft 203 kts 40°
2026-05-05 21:32 27.02101 51.10614 18661 ft 195 kts 16°
2026-05-05 21:32 27.03386 51.10863 18298 ft 184 kts 347°
2026-05-05 21:32 27.04523 51.10370 17940 ft 172 kts 318°
2026-05-05 21:32 27.05437 51.09532 17567 ft 168 kts 309°
2026-05-05 21:33 27.06080 51.08475 17162 ft 162 kts 288°
2026-05-05 21:33 27.06231 51.07249 16776 ft 159 kts 261°
2026-05-05 21:33 27.05787 51.06124 16404 ft 159 kts 236°
2026-05-05 21:33 27.05276 51.05425 16153 ft 159 kts 228°